[[{"header":{"parameterUnit":"m.s-1","parameterCategory":1,"la1":30.2991,"la2":30.254,"lo1":-89.0895,"lo2":-89.0444,"dy":0.0017,"dx":0.0017,"nx":28,"ny":28,"refTime":"2023-10-18T09:00:00:Z","depth":0,"parameterNumber":2,"parameterNumberName":"U-component_of_WINDS"},"data":[0,0,0,0,0,0,0,0,0,0,0,0,0,0,0,0,0,0,0,0,0,0,0,0,0,0,0,0,0,0,0,0,0,0,0,0,0,0,0,0,0,0,0,0,0,0,0,0,0,0,0,0,0,0,0,0,0,0,-2.7397,-2.7397,0,-2.7419,-2.7419,-2.7419,-2.737,-2.7368,-2.7366,-2.7365,-2.7388,-2.739,-2.7392,0,0,0,0,0,0,0,0,0,0,0,0,0,-2.7313,-2.7315,-2.7397,-2.7397,-2.7397,-2.7419,-2.7419,-2.742,-2.737,-2.7368,-2.7366,-2.7364,-2.7387,-2.739,-2.7392,0,0,0,0,0,0,0,0,0,0,0,0,0,-2.7344,-2.7316,-2.7397,-2.7375,-2.7374,-2.7419,-2.7419,-2.742,-2.737,-2.7368,-2.7366,-2.7363,-2.7386,-2.7389,-2.7393,-2.746,0,0,-2.7402,-2.7404,0,0,0,0,0,0,0,0,-2.7342,-2.7347,-2.7378,-2.7377,-2.7375,-2.7389,-2.7398,-2.7433,-2.7371,-2.7372,-2.7365,-2.7362,-2.739,-2.7393,-2.7402,-2.7461,-2.7462,-2.7402,-2.7404,-2.7406,-2.7407,0,0,0,0,0,0,0,-2.734,-2.7346,-2.7406,-2.7379,-2.7377,-2.7365,-2.7367,-2.7405,-2.7394,-2.7371,-2.7368,-2.7371,-2.7389,-2.7399,-2.7403,-2.7462,-2.7402,-2.7405,-2.7407,-2.7408,-2.758,-2.7582,0,0,0,0,0,0,-2.7341,-2.7345,-2.7405,-2.7406,-2.7352,-2.7369,-2.737,-2.7387,-2.7394,-2.7392,-2.7373,-2.7369,-2.7395,-2.7399,-2.7403,-2.7483,-2.7406,-2.7409,-2.741,-2.7577,-2.758,-2.7583,0,0,0,0,0,0,-2.7339,-2.7347,-2.7404,-2.7374,-2.7381,-2.7372,-2.7392,-2.7389,-2.7399,-2.7395,-2.7393,-2.7386,-2.7393,-2.7399,-2.7447,-2.7483,-2.741,-2.7413,-2.7574,-2.7578,-2.7582,-2.7644,0,0,0,0,0,0,-2.7337,-2.7346,-2.7371,-2.7375,-2.7383,-2.7447,-2.7394,-2.7391,-2.7405,-2.7399,-2.7406,-2.7405,-2.7392,-2.7442,-2.745,-2.7486,-2.7415,-2.757,-2.7576,-2.758,-2.7638,-2.7649,-2.7659,0,0,0,0,0,-2.7334,-2.7387,-2.7373,-2.738,-2.7414,-2.7449,-2.7453,-2.7437,-2.7408,-2.7433,-2.7431,-2.7405,-2.7479,-2.7448,-2.7456,-2.7494,-2.7568,-2.7574,-2.758,-2.7634,-2.7647,-2.7658,0,0,0,0,0,0,-2.7387,-2.7387,-2.7371,-2.7427,-2.7439,-2.744,-2.7471,-2.7451,-2.7471,-2.7465,-2.7444,-2.7447,-2.7499,-2.7501,-2.7467,-2.756,-2.7518,-2.7526,-2.7557,-2.7569,-2.7579,-2.7577,-2.7418,0,0,0,0,0,-2.7406,-2.7434,-2.7433,-2.7482,-2.7489,-2.748,-2.7494,-2.7481,-2.7492,-2.7496,-2.7497,-2.7509,-2.7535,-2.7552,-2.7576,-2.7639,-2.764,-2.767,-2.768,-2.7688,-2.7695,-2.773,-2.7743,-2.7603,-2.7603,-2.7603,0,0,-2.7443,-2.7447,-2.7466,-2.7493,-2.75,-2.7531,-2.7484,-2.7517,-2.754,-2.7501,-2.7547,-2.7549,-2.756,-2.7617,-2.7641,-2.762,-2.7734,-2.7696,-2.7703,-2.7705,-2.7737,-2.7751,-2.7763,-2.7607,-2.7606,-2.7605,0,0,-2.7528,-2.7533,-2.7576,-2.7584,-2.7596,-2.759,-2.7601,-2.7606,-2.7606,-2.7651,-2.7623,-2.7651,-2.7695,-2.7705,-2.7716,-2.7808,-2.7785,-2.7816,-2.7869,-2.7904,-2.7915,-2.7924,-2.7958,-2.797,-2.7823,-2.7824,-2.7824,0,-2.7573,-2.7617,-2.76,-2.7636,-2.765,-2.7617,-2.7661,-2.767,-2.7689,-2.7699,-2.7676,-2.7733,-2.7738,-2.7797,-2.782,-2.783,-2.7842,-2.7815,-2.7914,-2.7924,-2.7933,-2.7964,-2.7977,-2.7827,-2.7827,-2.7826,-2.7826,0,-2.7673,-2.7704,-2.7737,-2.7757,-2.7774,-2.7814,-2.7804,-2.7824,-2.781,-2.7807,-2.7855,-2.7861,-2.7886,-2.7899,-2.7886,-2.7957,-2.7943,-2.7918,-2.7875,-2.795,-2.7979,-2.7991,-2.7833,-2.7831,-2.783,-2.7829,0,0,-2.7788,-2.78,-2.7813,-2.7822,-2.7834,-2.7858,-2.7898,-2.7922,-2.794,-2.7955,-2.7988,-2.8028,-2.8005,-2.8018,-2.8006,-2.8036,-2.8109,-2.8006,-2.8006,-2.8025,-2.8189,-2.8208,-2.8222,-2.8095,-2.8097,-2.8099,-2.8188,0,-2.7872,-2.7939,-2.7926,-2.7992,-2.8021,-2.7992,-2.8027,-2.8039,-2.8038,-2.8063,-2.8062,-2.8091,-2.8058,-2.8065,-2.8094,-2.8094,-2.8142,-2.8088,-2.8126,-2.8127,-2.8122,-2.8237,-2.8257,-2.834,-2.8199,-2.8201,-2.8203,0,-2.7977,-2.7997,-2.8066,-2.8075,-2.8087,-2.8118,-2.8141,-2.8166,-2.8179,-2.8176,-2.8192,-2.8175,-2.8215,-2.8174,-2.8229,-2.8193,-2.8208,-2.8211,-2.8214,-2.8216,-2.8169,-2.8242,-2.8366,-2.8379,-2.822,-2.8219,-2.8218,0,-2.8055,-2.8099,-2.8146,-2.8155,-2.8167,-2.819,-2.8196,-2.8207,-2.8224,-2.8244,-2.8255,-2.828,-2.8293,-2.8314,-2.8304,-2.8275,-2.8363,-2.8319,-2.8362,-2.8362,-2.838,-2.8379,-2.8509,-2.8391,-2.8391,-2.8391,-2.8391,0,-2.8149,-2.8192,-2.8182,-2.8211,-2.8259,-2.8245,-2.8293,-2.8296,-2.8307,-2.8336,-2.8314,-2.8342,-2.8329,-2.8357,-2.835,-2.8398,-2.8404,-2.8404,-2.8401,-2.8405,-2.8406,-2.8414,-2.8408,-2.8394,-2.8394,-2.8393,-2.8392,0,-2.8243,-2.8238,-2.8287,-2.8295,-2.8298,-2.8334,-2.8341,-2.8369,-2.8367,-2.8405,-2.8413,-2.8411,-2.8443,-2.8436,-2.8471,-2.8467,-2.8527,-2.8518,-2.8522,-2.852,-2.8563,-2.8559,-2.8702,-2.872,-2.8592,-2.8593,-2.8594,0,-2.8303,-2.8336,-2.8348,-2.8366,-2.8374,-2.8404,-2.8421,-2.841,-2.8428,-2.8448,-2.8474,-2.8504,-2.8527,-2.858,-2.8582,-2.8609,-2.86,-2.8649,-2.8604,-2.8608,-2.8601,-2.8599,-2.8603,-2.8657,-2.8659,-2.866,-2.8661,0,-2.841,-2.8406,-2.8431,-2.8457,-2.8478,-2.8497,-2.8515,-2.8531,-2.8521,-2.8544,-2.8577,-2.8595,-2.8632,-2.8663,-2.8689,-2.8696,-2.8677,-2.8675,-2.8686,-2.869,-2.8692,-2.8692,-2.8546,-2.8671,-2.867,-2.867,-2.8669,-2.8669,-2.8488,-2.8517,-2.853,-2.856,-2.8572,-2.8589,-2.8616,-2.8618,-2.8645,-2.8674,-2.8667,-2.8704,-2.8719,-2.8752,-2.8763,-2.8793,-2.8775,-2.8791,-2.8795,-2.8799,-2.8804,-2.8688,-2.8798,-2.8797,-2.8797,-2.8797,-2.8797,0,-2.8594,-2.8602,-2.8629,-2.8655,-2.8679,-2.866,-2.8679,-2.87,-2.8733,-2.8749,-2.8773,-2.8812,-2.8842,-2.8848,-2.8877,-2.89,-2.8892,-2.8908,-2.8906,-2.8908,-2.8819,-2.8806,-2.8914,-2.8914,-2.8914,-2.8914,-2.8914,-2.8914,-2.8651,-2.8699,-2.8697,-2.8751,-2.8759,-2.8795,-2.8808,-2.8824,-2.8837,-2.8881,-2.8907,-2.891,-2.8922,-2.8953,-2.898,-2.8981,-2.8993,-2.9012,-2.901,-2.8926,-2.8914,-2.8903,-2.8891,-2.9015,-2.9015,-2.9097,-2.9097,-2.9098]},{"header":{"parameterUnit":"m.s-1","parameterCategory":1,"la1":30.2991,"la2":30.254,"lo1":-89.0895,"lo2":-89.0444,"dy":0.0017,"dx":0.0017,"nx":28,"ny":28,"refTime":"2023-10-18T09:00:00:Z","depth":0,"parameterNumber":3,"parameterNumberName":"V-component_of_WINDS"},"data":[0,0,0,0,0,0,0,0,0,0,0,0,0,0,0,0,0,0,0,0,0,0,0,0,0,0,0,0,0,0,0,0,0,0,0,0,0,0,0,0,0,0,0,0,0,0,0,0,0,0,0,0,0,0,0,0,0,0,2.1325,2.1325,0,2.1325,2.1325,2.1325,2.1383,2.1384,2.1386,2.1387,2.1381,2.1379,2.1378,0,0,0,0,0,0,0,0,0,0,0,0,0,2.1371,2.137,2.1325,2.1325,2.1325,2.1325,2.1325,2.1325,2.1382,2.1384,2.1386,2.1388,2.1381,2.1379,2.1377,0,0,0,0,0,0,0,0,0,0,0,0,0,2.1359,2.137,2.1325,2.1354,2.1357,2.1325,2.1325,2.1325,2.1382,2.1384,2.1386,2.1389,2.1382,2.1379,2.1377,2.1316,0,0,2.137,2.1369,0,0,0,0,0,0,0,0,2.136,2.1357,2.135,2.1352,2.1355,2.1356,2.1339,2.1322,2.1381,2.1372,2.1387,2.139,2.137,2.1369,2.1364,2.1316,2.1315,2.137,2.1368,2.1367,2.1366,0,0,0,0,0,0,0,2.136,2.1357,2.1325,2.135,2.1353,2.1365,2.1366,2.1336,2.1358,2.1373,2.1377,2.1377,2.1372,2.1366,2.1364,2.1315,2.137,2.1367,2.1366,2.1365,2.1217,2.1215,0,0,0,0,0,0,2.1358,2.1358,2.1325,2.1325,2.1363,2.1363,2.1364,2.1353,2.1359,2.1362,2.1375,2.1379,2.1369,2.1367,2.1364,2.1292,2.1367,2.1365,2.1363,2.122,2.1217,2.1214,0,0,0,0,0,0,2.1359,2.1355,2.1325,2.1343,2.134,2.136,2.1347,2.1352,2.1346,2.136,2.1364,2.1365,2.1371,2.1367,2.1328,2.1293,2.1364,2.1362,2.1223,2.1219,2.1215,2.1149,0,0,0,0,0,0,2.136,2.1354,2.1332,2.1342,2.1339,2.129,2.1345,2.135,2.1342,2.1348,2.1351,2.1354,2.1372,2.1331,2.1326,2.1291,2.136,2.1226,2.1221,2.1217,2.1154,2.1143,2.1134,0,0,0,0,0,2.1361,2.1312,2.1331,2.1326,2.1312,2.1288,2.1286,2.1309,2.1339,2.1316,2.1326,2.1354,2.1298,2.1327,2.1321,2.1285,2.1228,2.1222,2.1217,2.1158,2.1145,2.1134,0,0,0,0,0,0,2.1295,2.1314,2.1335,2.1287,2.1286,2.1298,2.1269,2.1295,2.1283,2.1289,2.1317,2.1317,2.1273,2.1275,2.1307,2.1226,2.1268,2.1261,2.1226,2.1213,2.1203,2.1202,2.1358,0,0,0,0,0,2.1276,2.1257,2.1273,2.123,2.1228,2.1249,2.1239,2.1258,2.1257,2.1256,2.1262,2.1258,2.124,2.1227,2.1211,2.1156,2.1156,2.1128,2.1118,2.111,2.1102,2.1073,2.106,2.1196,2.1196,2.1196,0,0,2.1234,2.1242,2.1228,2.1217,2.1218,2.1196,2.1248,2.1222,2.1206,2.1251,2.1215,2.122,2.1217,2.1169,2.1149,2.117,2.1065,2.1102,2.1096,2.1093,2.1065,2.1053,2.1041,2.1192,2.1193,2.1193,0,0,2.1147,2.1151,2.1116,2.1117,2.1118,2.1133,2.1124,2.1133,2.1138,2.1103,2.1137,2.1117,2.1085,2.1082,2.1076,2.099,2.1015,2.0984,2.093,2.0901,2.089,2.0881,2.0849,2.0837,2.0978,2.0977,2.0977,0,2.1094,2.1064,2.1094,2.1066,2.106,2.1104,2.1067,2.1066,2.1061,2.1055,2.108,2.1042,2.1043,2.0995,2.0974,2.0969,2.0959,2.0983,2.089,2.0881,2.0872,2.0842,2.083,2.0974,2.0974,2.0974,2.0975,0,2.0998,2.0977,2.0948,2.0945,2.0936,2.0904,2.0927,2.0914,2.0935,2.0946,2.0909,2.0913,2.0899,2.0889,2.0907,2.0844,2.0857,2.0885,2.0928,2.0855,2.0827,2.0816,2.0968,2.0969,2.0971,2.0971,0,0,2.0866,2.0883,2.0871,2.0871,2.0877,2.086,2.083,2.0819,2.0806,2.0802,2.0777,2.075,2.0777,2.077,2.0789,2.0764,2.0694,2.0796,2.0796,2.0775,2.0623,2.06,2.0586,2.0712,2.071,2.0709,2.0623,0,2.0781,2.0732,2.0759,2.0705,2.0685,2.0728,2.0701,2.0701,2.0712,2.0696,2.0707,2.0687,2.0725,2.0721,2.0698,2.0707,2.0664,2.0714,2.0686,2.0685,2.0684,2.0572,2.0547,2.0466,2.0612,2.061,2.0609,0,2.0674,2.0668,2.0613,2.0624,2.0616,2.0592,2.0584,2.0569,2.057,2.0579,2.0573,2.0598,2.0568,2.0613,2.0571,2.0605,2.0596,2.0599,2.0596,2.0592,2.0641,2.0563,2.0441,2.0428,2.0592,2.0594,2.0595,0,2.0581,2.056,2.0524,2.0522,2.0535,2.0517,2.0521,2.0525,2.0516,2.0508,2.0503,2.0491,2.0484,2.0474,2.0495,2.0526,2.045,2.0496,2.0455,2.0454,2.0435,2.0436,2.0307,2.0432,2.0433,2.0433,2.0433,0,2.0482,2.0446,2.0483,2.046,2.0422,2.0453,2.0413,2.0422,2.0425,2.0404,2.044,2.0419,2.0449,2.0431,2.0448,2.041,2.0407,2.0412,2.0417,2.0408,2.0407,2.04,2.0406,2.043,2.043,2.0431,2.0431,0,2.037,2.0394,2.0358,2.0374,2.0377,2.0347,2.036,2.0339,2.0354,2.0327,2.0322,2.0344,2.0324,2.0346,2.0327,2.0338,2.0287,2.0301,2.0287,2.029,2.0248,2.0251,2.0109,2.0091,2.0229,2.0228,2.0227,0,2.0304,2.0278,2.0292,2.0282,2.0284,2.0267,2.0259,2.0289,2.0279,2.028,2.0259,2.0243,2.0232,2.0199,2.0212,2.0198,2.0211,2.0162,2.0209,2.0201,2.0208,2.0209,2.0206,2.0152,2.015,2.0149,2.0148,0,2.0184,2.0197,2.0186,2.0178,2.0169,2.0164,2.0161,2.015,2.0182,2.0169,2.0151,2.0143,2.0126,2.0109,2.01,2.0102,2.0129,2.0133,2.0123,2.0112,2.0105,2.0107,2.0259,2.0136,2.0137,2.0138,2.0138,2.0139,2.0092,2.0071,2.0078,2.0064,2.0066,2.0063,2.0045,2.0058,2.0044,2.0034,2.0052,2.0029,2.0032,2.0022,2.0022,2.0004,2.0024,2.0009,2.0005,2.0,1.9993,2.011,2.0002,2.0002,2.0003,2.0003,2.0003,0,1.9972,1.9979,1.9966,1.9963,1.9952,1.9982,1.9981,1.9969,1.9949,1.995,1.994,1.9919,1.9904,1.9916,1.9903,1.9886,1.9898,1.9882,1.9882,1.9882,1.9976,1.9986,1.9872,1.9872,1.9872,1.9872,1.9872,1.9872,1.9908,1.9874,1.9888,1.9855,1.9863,1.9842,1.9839,1.9836,1.9838,1.9814,1.9802,1.9812,1.9817,1.9805,1.9792,1.9796,1.9789,1.9767,1.9775,1.9862,1.9875,1.9887,1.9897,1.9766,1.9766,1.9682,1.9681,1.9681]}]]